Time,TemperatureF,DewpointF,PressureIn,WindDirection,WindDirectionDegrees,WindSpeedMPH,WindSpeedGustMPH,Humidity,HourlyPrecipIn,Conditions,Clouds,dailyrainin,SoftwareType,DateUTC
2013-01-22 14:03:00,9.0,0.0,30.36,West,279,3.0,5.0,66,0.00,,,0.00,,2013-01-22 20:03:00,
2013-01-22 14:13:00,9.0,0.0,30.36,West,279,3.0,5.0,66,0.00,,,0.00,,2013-01-22 20:13:00,
2013-01-22 14:23:00,9.0,0.0,30.36,West,272,2.0,6.0,67,0.00,,,0.00,,2013-01-22 20:23:00,
2013-01-22 14:33:00,10.0,1.0,30.35,SW,223,3.0,4.0,66,0.00,,,0.00,,2013-01-22 20:33:00,
2013-01-22 14:43:00,10.0,1.0,30.35,SW,223,3.0,4.0,66,0.00,,,0.00,,2013-01-22 20:43:00,
2013-01-22 14:53:00,10.0,1.0,30.36,West,267,1.0,4.0,67,0.00,,,0.00,,2013-01-22 20:53:00,
2013-01-22 15:03:00,10.0,1.0,30.36,SW,230,0.0,4.0,66,0.00,,,0.00,,2013-01-22 21:03:00,
2013-01-22 15:13:00,10.0,1.0,30.36,SW,230,0.0,4.0,66,0.00,,,0.00,,2013-01-22 21:13:00,
2013-01-22 15:23:00,11.0,2.0,30.35,West,265,0.0,3.0,67,0.00,,,0.00,,2013-01-22 21:23:00,
2013-01-22 15:33:00,11.0,2.0,30.34,West,265,1.0,2.0,65,0.00,,,0.00,,2013-01-22 21:33:00,
2013-01-22 15:43:00,11.0,2.0,30.34,West,265,1.0,2.0,65,0.00,,,0.00,,2013-01-22 21:43:00,
2013-01-22 15:53:00,11.0,1.0,30.34,West,260,1.0,2.0,64,0.00,,,0.00,,2013-01-22 21:53:00,
2013-01-22 16:03:00,12.0,2.0,30.34,West,277,1.0,4.0,63,0.00,,,0.00,,2013-01-22 22:03:00,
2013-01-22 16:12:00,12.0,2.0,30.34,West,277,1.0,4.0,63,0.00,,,0.00,,2013-01-22 22:12:00,
2013-01-22 16:22:00,12.0,2.0,30.34,WNW,290,1.0,3.0,63,0.00,,,0.00,,2013-01-22 22:22:00,
2013-01-22 16:32:00,12.0,2.0,30.34,WNW,290,1.0,3.0,63,0.00,,,0.00,,2013-01-22 22:32:00,
2013-01-22 16:43:00,12.0,2.0,30.34,WNW,290,1.0,4.0,63,0.00,,,0.00,,2013-01-22 22:43:00,
2013-01-22 16:53:00,12.0,1.0,30.33,WSW,257,1.0,4.0,61,0.00,,,0.00,,2013-01-22 22:53:00,
2013-01-22 17:03:00,12.0,2.0,30.33,WSW,257,0.0,2.0,62,0.00,,,0.00,,2013-01-22 23:03:00,
2013-01-22 17:12:00,12.0,2.0,30.33,WSW,257,0.0,2.0,62,0.00,,,0.00,,2013-01-22 23:12:00,
2013-01-22 17:23:00,11.0,1.0,30.34,WSW,257,0.0,1.0,64,0.00,,,0.00,,2013-01-22 23:23:00,
2013-01-22 17:33:00,11.0,2.0,30.33,WSW,257,0.0,0.0,65,0.00,,,0.00,,2013-01-22 23:33:00,
2013-01-22 17:43:00,11.0,2.0,30.33,WSW,257,0.0,0.0,65,0.00,,,0.00,,2013-01-22 23:43:00,
2013-01-22 17:53:00,10.0,1.0,30.32,WSW,257,0.0,0.0,66,0.00,,,0.00,,2013-01-22 23:53:00,
2013-01-22 18:03:00,9.0,0.0,30.33,WSW,257,0.0,0.0,67,0.00,,,0.00,,2013-01-23 00:03:00,
2013-01-22 18:12:00,9.0,0.0,30.33,WSW,257,0.0,0.0,67,0.00,,,0.00,,2013-01-23 00:12:00,
2013-01-22 18:22:00,9.0,1.0,30.32,WSW,257,0.0,0.0,70,0.00,,,0.00,,2013-01-23 00:22:00,
2013-01-22 18:33:00,9.0,1.0,30.32,WSW,257,0.0,0.0,70,0.00,,,0.00,,2013-01-23 00:33:00,
2013-01-22 18:43:00,9.0,1.0,30.32,WSW,257,0.0,0.0,70,0.00,,,0.00,,2013-01-23 00:43:00,
2013-01-22 18:52:00,8.0,1.0,30.32,WSW,257,0.0,0.0,72,0.00,,,0.00,,2013-01-23 00:52:00,
2013-01-22 19:03:00,8.0,1.0,30.32,WSW,258,1.0,2.0,73,0.00,,,0.00,,2013-01-23 01:03:00,
2013-01-22 19:13:00,8.0,1.0,30.32,WSW,258,1.0,2.0,73,0.00,,,0.00,,2013-01-23 01:13:00,
2013-01-22 19:23:00,7.0,1.0,30.32,WSW,258,0.0,2.0,76,0.00,,,0.00,,2013-01-23 01:23:00,
2013-01-22 19:33:00,7.0,1.0,30.32,WSW,258,0.0,1.0,76,0.00,,,0.00,,2013-01-23 01:33:00,
2013-01-22 19:43:00,7.0,1.0,30.32,WSW,258,0.0,1.0,76,0.00,,,0.00,,2013-01-23 01:43:00,
2013-01-22 19:53:00,7.0,1.0,30.32,WSW,258,0.0,1.0,77,0.00,,,0.00,,2013-01-23 01:53:00,
2013-01-22 20:03:00,7.0,2.0,30.32,WSW,258,0.0,1.0,78,0.00,,,0.00,,2013-01-23 02:03:00,
2013-01-22 20:12:00,7.0,2.0,30.32,WSW,258,0.0,1.0,78,0.00,,,0.00,,2013-01-23 02:12:00,
2013-01-22 20:23:00,8.0,3.0,30.32,WSW,258,0.0,0.0,79,0.00,,,0.00,,2013-01-23 02:23:00,
2013-01-22 20:33:00,8.0,3.0,30.32,WSW,258,0.0,0.0,79,0.00,,,0.00,,2013-01-23 02:33:00,
2013-01-22 20:42:00,8.0,3.0,30.32,WSW,258,0.0,0.0,79,0.00,,,0.00,,2013-01-23 02:42:00,
2013-01-22 20:53:00,9.0,4.0,30.31,WSW,258,1.0,2.0,79,0.00,,,0.00,,2013-01-23 02:53:00,
2013-01-22 21:03:00,9.0,4.0,30.30,ENE,68,2.0,3.0,79,0.00,,,0.00,,2013-01-23 03:03:00,
2013-01-22 21:13:00,9.0,4.0,30.30,ENE,68,2.0,3.0,79,0.00,,,0.00,,2013-01-23 03:13:00,
2013-01-22 21:23:00,10.0,5.0,30.29,ENE,69,0.0,2.0,79,0.00,,,0.00,,2013-01-23 03:23:00,
2013-01-22 21:33:00,10.0,4.0,30.29,ENE,69,0.0,2.0,77,0.00,,,0.00,,2013-01-23 03:33:00,
2013-01-22 21:42:00,10.0,4.0,30.29,ENE,69,0.0,2.0,77,0.00,,,0.00,,2013-01-23 03:42:00,
2013-01-22 21:53:00,11.0,6.0,30.29,ENE,69,1.0,2.0,78,0.00,,,0.00,,2013-01-23 03:53:00,
2013-01-22 22:03:00,11.0,6.0,30.28,ENE,69,0.0,2.0,79,0.00,,,0.00,,2013-01-23 04:03:00,
2013-01-22 22:12:00,11.0,6.0,30.28,ENE,69,0.0,2.0,79,0.00,,,0.00,,2013-01-23 04:12:00,
2013-01-22 22:22:00,12.0,7.0,30.28,South,175,1.0,5.0,79,0.00,,,0.00,,2013-01-23 04:22:00,
2013-01-22 22:32:00,13.0,7.0,30.28,SSW,202,2.0,5.0,77,0.00,,,0.00,,2013-01-23 04:32:00,
2013-01-22 22:43:00,13.0,7.0,30.28,SSW,202,2.0,5.0,77,0.00,,,0.00,,2013-01-23 04:43:00,
2013-01-22 22:53:00,13.0,7.0,30.27,SSW,194,2.0,4.0,75,0.00,,,0.00,,2013-01-23 04:53:00,
2013-01-22 23:03:00,13.0,7.0,30.27,SSW,213,2.0,4.0,75,0.00,,,0.00,,2013-01-23 05:03:00,
2013-01-22 23:12:00,13.0,7.0,30.27,SSW,213,2.0,4.0,75,0.00,,,0.00,,2013-01-23 05:12:00,
2013-01-22 23:22:00,13.0,7.0,30.27,SSE,168,1.0,5.0,75,0.00,,,0.00,,2013-01-23 05:22:00,
2013-01-22 23:33:00,13.0,7.0,30.27,South,176,3.0,6.0,76,0.00,,,0.00,,2013-01-23 05:33:00,
2013-01-22 23:43:00,13.0,7.0,30.27,South,176,3.0,6.0,76,0.00,,,0.00,,2013-01-23 05:43:00,
2013-01-22 23:53:00,13.0,7.0,30.27,SSE,160,2.0,6.0,77,0.00,,,0.00,,2013-01-23 05:53:00,